Saint Bonnet de Bellac- Haute Vienne - France
Donnes mto: lundi, 23/01/2012
Date Horaire Temp. E. Hum. E. P.atmo. Pluie Vent Direction Direction Ensoleilleme Solaire P. de rose Temp au vent Rafales
23/01/2012 00:00 6,9 C 95 % 1021,8 hPa 0,0 mm 0,0 km/h (0 Bft) O 270 0 min 0 W/m 6,2 C 6,9 C 0,0 km/h (0 Bft)
23/01/2012 00:10 6,8 C 95 % 1021,7 hPa 0,0 mm 0,0 km/h (0 Bft) O 270 0 min 0 W/m 6,1 C 6,8 C 0,0 km/h (0 Bft)
23/01/2012 00:20 6,8 C 95 % 1021,6 hPa 0,0 mm 0,0 km/h (0 Bft) O 270 0 min 0 W/m 6,1 C 6,8 C 0,0 km/h (0 Bft)
23/01/2012 00:30 6,8 C 95 % 1021,5 hPa 0,0 mm 0,0 km/h (0 Bft) S 180 0 min 0 W/m 6,1 C 6,8 C 0,0 km/h (0 Bft)
23/01/2012 00:40 6,8 C 95 % 1021,5 hPa 0,0 mm 0,0 km/h (0 Bft) S 180 0 min 0 W/m 6,1 C 6,8 C 0,0 km/h (0 Bft)
23/01/2012 00:50 6,8 C 95 % 1021,5 hPa 0,0 mm 0,0 km/h (0 Bft) S 180 0 min 0 W/m 6,1 C 6,8 C 0,0 km/h (0 Bft)
23/01/2012 01:00 6,8 C 95 % 1021,6 hPa 0,0 mm 0,0 km/h (0 Bft) S 180 0 min 0 W/m 6,1 C 6,8 C 0,0 km/h (0 Bft)
23/01/2012 01:10 6,8 C 95 % 1021,5 hPa 0,0 mm 0,0 km/h (0 Bft) S 180 0 min 0 W/m 6,1 C 6,8 C 0,0 km/h (0 Bft)
23/01/2012 01:20 6,8 C 95 % 1021,4 hPa 0,0 mm 0,0 km/h (0 Bft) S 180 0 min 0 W/m 6,1 C 6,8 C 0,0 km/h (0 Bft)
23/01/2012 01:30 6,8 C 95 % 1021,5 hPa 0,0 mm 0,0 km/h (0 Bft) S 180 0 min 0 W/m 6,1 C 6,8 C 0,0 km/h (0 Bft)
23/01/2012 01:40 6,8 C 95 % 1021,3 hPa 0,0 mm 0,0 km/h (0 Bft) S-SO 202 0 min 0 W/m 6,1 C 6,8 C 0,0 km/h (0 Bft)
23/01/2012 01:50 6,8 C 95 % 1021,2 hPa 0,0 mm 0,7 km/h (0 Bft) S-SO 202 0 min 0 W/m 6,1 C 6,8 C 3,2 km/h (1 Bft)
23/01/2012 02:02 6,8 C 95 % 1021,1 hPa 0,0 mm 2,2 km/h (1 Bft) S-SO 202 0 min 0 W/m 6,1 C 6,8 C 4,0 km/h (1 Bft)
23/01/2012 02:10 6,8 C 95 % 1020,9 hPa 0,0 mm 3,2 km/h (1 Bft) S-SO 202 0 min 0 W/m 6,1 C 6,8 C 4,3 km/h (1 Bft)
23/01/2012 02:20 6,6 C 95 % 1021,0 hPa 0,0 mm 1,1 km/h (1 Bft) S 180 0 min 0 W/m 5,9 C 6,6 C 4,0 km/h (1 Bft)
23/01/2012 02:30 6,7 C 95 % 1020,8 hPa 0,0 mm 2,9 km/h (1 Bft) S-SO 202 0 min 0 W/m 6,0 C 6,7 C 4,3 km/h (1 Bft)
23/01/2012 02:40 6,8 C 95 % 1020,9 hPa 0,0 mm 0,0 km/h (0 Bft) SO 225 0 min 0 W/m 6,1 C 6,8 C 0,0 km/h (0 Bft)
23/01/2012 02:50 6,8 C 95 % 1021,0 hPa 0,0 mm 0,0 km/h (0 Bft) S-SO 202 0 min 0 W/m 6,1 C 6,8 C 0,0 km/h (0 Bft)
23/01/2012 03:00 6,8 C 95 % 1021,0 hPa 0,0 mm 0,0 km/h (0 Bft) SO 225 0 min 0 W/m 6,1 C 6,8 C 0,0 km/h (0 Bft)
23/01/2012 03:10 6,6 C 95 % 1021,0 hPa 0,0 mm 0,0 km/h (0 Bft) O-SO 247 0 min 0 W/m 5,9 C 6,6 C 0,0 km/h (0 Bft)
23/01/2012 03:20 6,6 C 95 % 1021,0 hPa 0,0 mm 0,0 km/h (0 Bft) O-SO 247 0 min 0 W/m 5,9 C 6,6 C 0,0 km/h (0 Bft)
23/01/2012 03:30 6,6 C 95 % 1020,9 hPa 0,0 mm 0,0 km/h (0 Bft) O-SO 247 0 min 0 W/m 5,9 C 6,6 C 0,0 km/h (0 Bft)
23/01/2012 03:40 6,6 C 95 % 1021,0 hPa 0,0 mm 0,0 km/h (0 Bft) SO 225 0 min 0 W/m 5,9 C 6,6 C 1,4 km/h (1 Bft)
23/01/2012 03:50 6,6 C 95 % 1020,9 hPa 0,0 mm 1,4 km/h (1 Bft) S-SO 202 0 min 0 W/m 5,9 C 6,6 C 3,2 km/h (1 Bft)
23/01/2012 04:00 6,6 C 95 % 1020,9 hPa 0,0 mm 1,4 km/h (1 Bft) S-SO 202 0 min 0 W/m 5,9 C 6,6 C 4,0 km/h (1 Bft)
23/01/2012 04:10 6,6 C 95 % 1020,8 hPa 0,0 mm 0,0 km/h (0 Bft) SO 225 0 min 0 W/m 5,9 C 6,6 C 0,0 km/h (0 Bft)
23/01/2012 04:20 6,5 C 95 % 1020,8 hPa 0,0 mm 0,0 km/h (0 Bft) SO 225 0 min 0 W/m 5,8 C 6,5 C 0,0 km/h (0 Bft)
23/01/2012 04:30 6,5 C 95 % 1020,8 hPa 0,0 mm 0,7 km/h (0 Bft) SO 225 0 min 0 W/m 5,8 C 6,5 C 2,9 km/h (1 Bft)
23/01/2012 04:40 6,5 C 95 % 1020,7 hPa 0,0 mm 0,0 km/h (0 Bft) O-SO 247 0 min 0 W/m 5,8 C 6,5 C 0,0 km/h (0 Bft)
23/01/2012 04:50 6,5 C 95 % 1020,7 hPa 0,0 mm 2,2 km/h (1 Bft) S-SO 202 0 min 0 W/m 5,8 C 6,5 C 3,6 km/h (1 Bft)
23/01/2012 05:00 6,5 C 95 % 1020,6 hPa 0,0 mm 0,4 km/h (0 Bft) S-SO 202 0 min 0 W/m 5,8 C 6,5 C 4,0 km/h (1 Bft)
23/01/2012 05:10 6,5 C 95 % 1020,5 hPa 0,0 mm 0,0 km/h (0 Bft) SO 225 0 min 0 W/m 5,8 C 6,5 C 0,0 km/h (0 Bft)
23/01/2012 05:20 6,5 C 95 % 1020,4 hPa 0,0 mm 0,0 km/h (0 Bft) S-SO 202 0 min 0 W/m 5,8 C 6,5 C 0,0 km/h (0 Bft)
23/01/2012 05:30 6,5 C 95 % 1020,4 hPa 0,0 mm 1,8 km/h (1 Bft) S-SO 202 0 min 0 W/m 5,8 C 6,5 C 3,2 km/h (1 Bft)
23/01/2012 05:40 6,5 C 95 % 1020,4 hPa 0,0 mm 0,0 km/h (0 Bft) SO 225 0 min 0 W/m 5,8 C 6,5 C 0,0 km/h (0 Bft)
23/01/2012 05:50 6,4 C 95 % 1020,4 hPa 0,0 mm 0,0 km/h (0 Bft) O-SO 247 0 min 0 W/m 5,7 C 6,4 C 0,0 km/h (0 Bft)
23/01/2012 06:00 6,5 C 95 % 1020,4 hPa 0,0 mm 0,0 km/h (0 Bft) O-SO 247 0 min 0 W/m 5,8 C 6,5 C 0,0 km/h (0 Bft)
23/01/2012 06:10 6,5 C 95 % 1020,5 hPa 0,0 mm 1,8 km/h (1 Bft) SO 225 0 min 0 W/m 5,8 C 6,5 C 4,3 km/h (1 Bft)
23/01/2012 06:20 6,5 C 95 % 1020,4 hPa 0,0 mm 0,7 km/h (0 Bft) SO 225 0 min 0 W/m 5,8 C 6,5 C 0,7 km/h (0 Bft)
23/01/2012 06:30 6,6 C 95 % 1020,4 hPa 0,0 mm 2,5 km/h (1 Bft) S-SO 202 0 min 0 W/m 5,9 C 6,6 C 4,3 km/h (1 Bft)
23/01/2012 06:40 6,5 C 94 % 1020,4 hPa 0,0 mm 2,2 km/h (1 Bft) SO 225 0 min 0 W/m 5,6 C 6,5 C 4,0 km/h (1 Bft)
23/01/2012 06:50 6,6 C 94 % 1020,5 hPa 0,0 mm 0,0 km/h (0 Bft) SO 225 0 min 0 W/m 5,7 C 6,6 C 0,0 km/h (0 Bft)
23/01/2012 07:00 6,6 C 94 % 1020,5 hPa 0,0 mm 0,0 km/h (0 Bft) S-SO 202 0 min 0 W/m 5,7 C 6,6 C 0,0 km/h (0 Bft)
23/01/2012 07:10 6,5 C 94 % 1020,4 hPa 0,0 mm 1,1 km/h (1 Bft) SO 225 0 min 0 W/m 5,6 C 6,5 C 1,1 km/h (1 Bft)
23/01/2012 07:20 6,5 C 94 % 1020,5 hPa 0,0 mm 1,4 km/h (1 Bft) S-SO 202 0 min 0 W/m 5,6 C 6,5 C 4,3 km/h (1 Bft)
23/01/2012 07:30 6,5 C 94 % 1020,5 hPa 0,0 mm 1,1 km/h (1 Bft) S-SO 202 0 min 0 W/m 5,6 C 6,5 C 3,2 km/h (1 Bft)
23/01/2012 07:40 6,5 C 94 % 1020,7 hPa 0,0 mm 0,0 km/h (0 Bft) S-SO 202 0 min 0 W/m 5,6 C 6,5 C 0,0 km/h (0 Bft)
23/01/2012 07:50 6,5 C 94 % 1020,7 hPa 0,0 mm 0,4 km/h (0 Bft) S-SO 202 0 min 0 W/m 5,6 C 6,5 C 2,9 km/h (1 Bft)
23/01/2012 08:00 6,5 C 94 % 1020,8 hPa 0,0 mm 0,0 km/h (0 Bft) S-SO 202 0 min 0 W/m 5,6 C 6,5 C 0,0 km/h (0 Bft)
23/01/2012 08:10 6,4 C 94 % 1020,9 hPa 0,0 mm 0,0 km/h (0 Bft) S-SO 202 0 min 0 W/m 5,5 C 6,4 C 0,0 km/h (0 Bft)
23/01/2012 08:20 6,4 C 94 % 1020,8 hPa 0,0 mm 1,8 km/h (1 Bft) S-SO 202 0 min 0 W/m 5,5 C 6,4 C 4,0 km/h (1 Bft)
23/01/2012 08:30 6,4 C 94 % 1020,9 hPa 0,0 mm 0,4 km/h (0 Bft) SO 225 0 min 0 W/m 5,5 C 6,4 C 0,4 km/h (0 Bft)
23/01/2012 08:40 6,5 C 94 % 1020,9 hPa 0,0 mm 0,0 km/h (0 Bft) SO 225 0 min 0 W/m 5,6 C 6,5 C 0,0 km/h (0 Bft)
23/01/2012 08:50 6,5 C 94 % 1021,1 hPa 0,0 mm 0,0 km/h (0 Bft) SO 225 2 min 0 W/m 5,6 C 6,5 C 0,0 km/h (0 Bft)
23/01/2012 09:00 6,5 C 94 % 1021,1 hPa 0,0 mm 1,4 km/h (1 Bft) S-SO 202 2 min 0 W/m 5,6 C 6,5 C 3,6 km/h (1 Bft)
23/01/2012 09:10 6,5 C 94 % 1021,3 hPa 0,0 mm 0,0 km/h (0 Bft) S-SO 202 2 min 0 W/m 5,6 C 6,5 C 3,6 km/h (1 Bft)
23/01/2012 09:20 6,6 C 94 % 1021,4 hPa 0,0 mm 0,0 km/h (0 Bft) S-SO 202 2 min 0 W/m 5,7 C 6,6 C 3,2 km/h (1 Bft)
23/01/2012 09:30 6,6 C 94 % 1021,5 hPa 0,0 mm 0,0 km/h (0 Bft) S-SO 202 2 min 0 W/m 5,7 C 6,6 C 0,0 km/h (0 Bft)
23/01/2012 09:40 6,6 C 94 % 1021,7 hPa 0,0 mm 0,0 km/h (0 Bft) SO 225 2 min 0 W/m 5,7 C 6,6 C 0,0 km/h (0 Bft)
23/01/2012 09:50 6,6 C 94 % 1021,6 hPa 0,0 mm 2,2 km/h (1 Bft) SO 225 2 min 0 W/m 5,7 C 6,6 C 4,0 km/h (1 Bft)
23/01/2012 10:00 6,8 C 94 % 1021,5 hPa 0,0 mm 0,0 km/h (0 Bft) SO 225 2 min 0 W/m 5,9 C 6,8 C 0,0 km/h (0 Bft)
23/01/2012 10:10 6,8 C 94 % 1021,5 hPa 0,0 mm 2,5 km/h (1 Bft) SO 225 2 min 0 W/m 5,9 C 6,8 C 4,3 km/h (1 Bft)
23/01/2012 10:20 6,9 C 95 % 1021,5 hPa 0,0 mm 0,0 km/h (0 Bft) S-SO 202 2 min 0 W/m 6,2 C 6,9 C 0,0 km/h (0 Bft)
23/01/2012 10:30 6,9 C 95 % 1021,4 hPa 0,0 mm 1,8 km/h (1 Bft) S-SO 202 2 min 0 W/m 6,2 C 6,9 C 3,6 km/h (1 Bft)
23/01/2012 10:40 6,9 C 94 % 1021,4 hPa 0,0 mm 0,0 km/h (0 Bft) SO 225 2 min 0 W/m 6,0 C 6,9 C 0,0 km/h (0 Bft)
23/01/2012 10:50 7,1 C 94 % 1021,4 hPa 0,0 mm 0,7 km/h (0 Bft) SO 225 2 min 0 W/m 6,2 C 7,1 C 3,2 km/h (1 Bft)
23/01/2012 11:00 7,1 C 94 % 1021,5 hPa 0,0 mm 0,0 km/h (0 Bft) S-SO 202 2 min 0 W/m 6,2 C 7,1 C 0,0 km/h (0 Bft)
23/01/2012 11:10 7,2 C 94 % 1021,4 hPa 0,0 mm 1,1 km/h (1 Bft) SO 225 2 min 0 W/m 6,3 C 7,2 C 4,0 km/h (1 Bft)
23/01/2012 11:20 7,4 C 94 % 1021,4 hPa 0,0 mm 0,0 km/h (0 Bft) SO 225 2 min 0 W/m 6,5 C 7,4 C 1,4 km/h (1 Bft)
23/01/2012 11:30 7,4 C 93 % 1021,4 hPa 0,0 mm 0,7 km/h (0 Bft) SO 225 2 min 0 W/m 6,3 C 7,4 C 3,2 km/h (1 Bft)
23/01/2012 11:40 7,6 C 93 % 1021,4 hPa 0,0 mm 1,4 km/h (1 Bft) SO 225 2 min 0 W/m 6,5 C 7,6 C 4,3 km/h (1 Bft)
23/01/2012 11:50 7,8 C 92 % 1021,5 hPa 0,0 mm 0,0 km/h (0 Bft) SO 225 2 min 0 W/m 6,6 C 7,8 C 0,0 km/h (0 Bft)
23/01/2012 12:00 7,8 C 92 % 1021,5 hPa 0,0 mm 1,1 km/h (1 Bft) SO 225 2 min 0 W/m 6,6 C 7,8 C 3,2 km/h (1 Bft)
23/01/2012 12:10 7,8 C 92 % 1021,5 hPa 0,0 mm 0,0 km/h (0 Bft) O-SO 247 2 min 0 W/m 6,6 C 7,8 C 2,9 km/h (1 Bft)
23/01/2012 12:20 7,9 C 92 % 1021,4 hPa 0,0 mm 2,9 km/h (1 Bft) S-SO 202 2 min 0 W/m 6,7 C 7,9 C 4,0 km/h (1 Bft)
23/01/2012 12:30 7,9 C 92 % 1021,3 hPa 0,0 mm 0,0 km/h (0 Bft) O 270 2 min 0 W/m 6,7 C 7,9 C 0,0 km/h (0 Bft)
23/01/2012 12:40 8,0 C 92 % 1021,4 hPa 0,0 mm 0,4 km/h (0 Bft) O 270 2 min 0 W/m 6,8 C 8,0 C 2,9 km/h (1 Bft)
23/01/2012 12:50 8,2 C 91 % 1021,4 hPa 0,0 mm 0,0 km/h (0 Bft) O 270 2 min 0 W/m 6,8 C 8,2 C 0,0 km/h (0 Bft)
23/01/2012 13:00 8,3 C 91 % 1021,3 hPa 0,0 mm 1,4 km/h (1 Bft) O-SO 247 2 min 0 W/m 6,9 C 8,3 C 4,3 km/h (1 Bft)
23/01/2012 13:10 8,4 C 89 % 1021,2 hPa 0,0 mm 1,4 km/h (1 Bft) S-SO 202 2 min 0 W/m 6,7 C 8,4 C 3,6 km/h (1 Bft)
23/01/2012 13:20 8,4 C 89 % 1021,2 hPa 0,0 mm 1,1 km/h (1 Bft) SO 225 2 min 0 W/m 6,7 C 8,4 C 4,3 km/h (1 Bft)
23/01/2012 13:30 8,5 C 89 % 1021,1 hPa 0,0 mm 5,0 km/h (1 Bft) O 270 2 min 0 W/m 6,8 C 8,1 C 7,6 km/h (2 Bft)
23/01/2012 13:40 8,5 C 88 % 1021,0 hPa 0,0 mm 1,1 km/h (1 Bft) O 270 2 min 0 W/m 6,6 C 8,5 C 4,3 km/h (1 Bft)
23/01/2012 13:50 8,6 C 88 % 1020,9 hPa 0,0 mm 0,0 km/h (0 Bft) O-SO 247 2 min 0 W/m 6,7 C 8,6 C 0,0 km/h (0 Bft)
23/01/2012 14:00 8,8 C 88 % 1020,9 hPa 0,0 mm 0,4 km/h (0 Bft) S-SO 202 2 min 0 W/m 6,9 C 8,8 C 3,2 km/h (1 Bft)
23/01/2012 14:10 8,8 C 88 % 1020,9 hPa 0,0 mm 2,5 km/h (1 Bft) O 270 2 min 0 W/m 6,9 C 8,8 C 7,9 km/h (2 Bft)
23/01/2012 14:20 8,9 C 87 % 1020,8 hPa 0,0 mm 0,0 km/h (0 Bft) O-SO 247 2 min 0 W/m 6,9 C 8,9 C 0,0 km/h (0 Bft)
23/01/2012 14:30 8,9 C 87 % 1020,7 hPa 0,0 mm 0,0 km/h (0 Bft) O 270 2 min 0 W/m 6,9 C 8,9 C 0,0 km/h (0 Bft)
23/01/2012 14:40 9,1 C 86 % 1020,7 hPa 0,0 mm 1,1 km/h (1 Bft) O 270 2 min 0 W/m 6,9 C 9,1 C 3,2 km/h (1 Bft)
23/01/2012 14:50 9,1 C 86 % 1020,9 hPa 0,0 mm 0,4 km/h (0 Bft) O-NO 292 2 min 0 W/m 6,9 C 9,1 C 2,9 km/h (1 Bft)
23/01/2012 15:00 9,1 C 86 % 1020,9 hPa 0,0 mm 2,2 km/h (1 Bft) O 270 2 min 0 W/m 6,9 C 9,1 C 4,0 km/h (1 Bft)
23/01/2012 15:10 9,1 C 84 % 1020,7 hPa 0,0 mm 1,1 km/h (1 Bft) O 270 2 min 0 W/m 6,5 C 9,1 C 3,6 km/h (1 Bft)
23/01/2012 15:20 8,9 C 85 % 1020,7 hPa 0,0 mm 1,4 km/h (1 Bft) O 270 2 min 0 W/m 6,5 C 8,9 C 3,6 km/h (1 Bft)
23/01/2012 15:30 8,9 C 85 % 1020,7 hPa 0,0 mm 0,0 km/h (0 Bft) O-NO 292 2 min 0 W/m 6,5 C 8,9 C 0,0 km/h (0 Bft)
23/01/2012 15:40 8,8 C 85 % 1020,5 hPa 0,0 mm 0,4 km/h (0 Bft) O 270 2 min 0 W/m 6,4 C 8,8 C 3,2 km/h (1 Bft)
23/01/2012 15:50 8,8 C 86 % 1020,3 hPa 0,0 mm 0,7 km/h (0 Bft) O 270 2 min 0 W/m 6,6 C 8,8 C 4,3 km/h (1 Bft)
23/01/2012 16:00 8,8 C 86 % 1020,2 hPa 0,0 mm 0,7 km/h (0 Bft) O 270 2 min 0 W/m 6,6 C 8,8 C 0,7 km/h (0 Bft)
23/01/2012 16:10 8,8 C 86 % 1020,2 hPa 0,0 mm 0,0 km/h (0 Bft) O 270 2 min 0 W/m 6,6 C 8,8 C 0,0 km/h (0 Bft)
23/01/2012 16:20 8,6 C 86 % 1020,2 hPa 0,0 mm 0,0 km/h (0 Bft) O 270 2 min 0 W/m 6,4 C 8,6 C 0,0 km/h (0 Bft)
23/01/2012 16:30 8,6 C 87 % 1020,4 hPa 0,0 mm 0,0 km/h (0 Bft) O 270 2 min 0 W/m 6,6 C 8,6 C 0,0 km/h (0 Bft)
23/01/2012 16:40 8,6 C 87 % 1020,8 hPa 0,0 mm 0,4 km/h (0 Bft) N-NO 337 2 min 0 W/m 6,6 C 8,6 C 0,4 km/h (0 Bft)
23/01/2012 16:50 8,5 C 87 % 1021,1 hPa 0,0 mm 1,8 km/h (1 Bft) NO 315 2 min 0 W/m 6,5 C 8,5 C 8,3 km/h (2 Bft)
23/01/2012 17:00 8,4 C 85 % 1020,9 hPa 0,0 mm 0,7 km/h (0 Bft) O-SO 247 2 min 0 W/m 6,0 C 8,4 C 4,3 km/h (1 Bft)
23/01/2012 17:10 8,3 C 82 % 1020,7 hPa 0,0 mm 0,4 km/h (0 Bft) O 270 2 min 0 W/m 5,4 C 8,3 C 3,6 km/h (1 Bft)
23/01/2012 17:20 8,2 C 84 % 1020,9 hPa 0,0 mm 0,4 km/h (0 Bft) O-NO 292 2 min 0 W/m 5,7 C 8,2 C 0,4 km/h (0 Bft)
23/01/2012 17:30 8,1 C 84 % 1021,0 hPa 0,0 mm 0,0 km/h (0 Bft) O 270 2 min 0 W/m 5,6 C 8,1 C 0,0 km/h (0 Bft)
23/01/2012 17:40 8,0 C 85 % 1021,2 hPa 0,0 mm 4,3 km/h (1 Bft) NO 315 0 min 0 W/m 5,6 C 8,0 C 7,9 km/h (2 Bft)
23/01/2012 17:50 7,8 C 85 % 1021,2 hPa 0,0 mm 0,0 km/h (0 Bft) O 270 0 min 0 W/m 5,4 C 7,8 C 0,0 km/h (0 Bft)
23/01/2012 18:00 7,8 C 84 % 1021,5 hPa 0,0 mm 2,9 km/h (1 Bft) NO 315 0 min 0 W/m 5,3 C 7,8 C 4,3 km/h (1 Bft)
23/01/2012 18:10 7,7 C 83 % 1021,4 hPa 0,0 mm 0,0 km/h (0 Bft) NO 315 0 min 0 W/m 5,0 C 7,7 C 1,4 km/h (1 Bft)
23/01/2012 18:20 7,6 C 83 % 1021,5 hPa 0,0 mm 0,0 km/h (0 Bft) O 270 0 min 0 W/m 4,9 C 7,6 C 0,0 km/h (0 Bft)
23/01/2012 18:30 7,4 C 83 % 1021,6 hPa 0,0 mm 3,2 km/h (1 Bft) O-NO 292 0 min 0 W/m 4,7 C 7,4 C 3,6 km/h (1 Bft)
23/01/2012 18:40 7,4 C 83 % 1021,9 hPa 0,0 mm 2,5 km/h (1 Bft) NO 315 0 min 0 W/m 4,7 C 7,4 C 4,3 km/h (1 Bft)
23/01/2012 18:50 7,4 C 83 % 1021,8 hPa 0,0 mm 0,0 km/h (0 Bft) NO 315 0 min 0 W/m 4,7 C 7,4 C 3,2 km/h (1 Bft)
23/01/2012 19:00 7,3 C 83 % 1021,8 hPa 0,0 mm 1,4 km/h (1 Bft) O-NO 292 0 min 0 W/m 4,6 C 7,3 C 6,8 km/h (2 Bft)
23/01/2012 19:10 7,3 C 83 % 1022,0 hPa 0,0 mm 0,4 km/h (0 Bft) NO 315 0 min 0 W/m 4,6 C 7,3 C 0,4 km/h (0 Bft)
23/01/2012 19:20 7,2 C 84 % 1021,9 hPa 0,0 mm 0,4 km/h (0 Bft) NO 315 0 min 0 W/m 4,7 C 7,2 C 3,2 km/h (1 Bft)
23/01/2012 19:30 7,1 C 84 % 1022,0 hPa 0,0 mm 1,4 km/h (1 Bft) O-NO 292 0 min 0 W/m 4,6 C 7,1 C 3,6 km/h (1 Bft)
23/01/2012 19:40 7,1 C 84 % 1021,9 hPa 0,0 mm 0,0 km/h (0 Bft) O 270 0 min 0 W/m 4,6 C 7,1 C 0,0 km/h (0 Bft)
23/01/2012 19:50 7,1 C 84 % 1021,9 hPa 0,0 mm 0,0 km/h (0 Bft) O 270 0 min 0 W/m 4,6 C 7,1 C 0,0 km/h (0 Bft)
23/01/2012 20:00 7,0 C 85 % 1022,0 hPa 0,0 mm 0,0 km/h (0 Bft) O 270 0 min 0 W/m 4,7 C 7,0 C 0,0 km/h (0 Bft)
23/01/2012 20:10 6,9 C 85 % 1022,0 hPa 0,0 mm 0,0 km/h (0 Bft) O-SO 247 0 min 0 W/m 4,6 C 6,9 C 0,0 km/h (0 Bft)
23/01/2012 20:20 6,9 C 85 % 1022,1 hPa 0,0 mm 0,0 km/h (0 Bft) O 270 0 min 0 W/m 4,6 C 6,9 C 3,2 km/h (1 Bft)
23/01/2012 20:30 6,9 C 85 % 1021,9 hPa 0,0 mm 0,0 km/h (0 Bft) SO 225 0 min 0 W/m 4,6 C 6,9 C 0,0 km/h (0 Bft)
23/01/2012 20:40 6,8 C 85 % 1021,9 hPa 0,0 mm 0,0 km/h (0 Bft) O-SO 247 0 min 0 W/m 4,5 C 6,8 C 0,0 km/h (0 Bft)
23/01/2012 20:50 6,8 C 86 % 1022,0 hPa 0,0 mm 0,0 km/h (0 Bft) O 270 0 min 0 W/m 4,6 C 6,8 C 0,0 km/h (0 Bft)
23/01/2012 21:00 6,8 C 86 % 1022,2 hPa 0,0 mm 0,0 km/h (0 Bft) O 270 0 min 0 W/m 4,6 C 6,8 C 0,0 km/h (0 Bft)
23/01/2012 21:10 6,8 C 86 % 1022,4 hPa 0,0 mm 0,0 km/h (0 Bft) O-NO 292 0 min 0 W/m 4,6 C 6,8 C 1,4 km/h (1 Bft)
23/01/2012 21:20 6,8 C 86 % 1022,4 hPa 0,0 mm 0,0 km/h (0 Bft) O 270 0 min 0 W/m 4,6 C 6,8 C 0,0 km/h (0 Bft)
23/01/2012 21:30 6,7 C 86 % 1022,4 hPa 0,0 mm 0,0 km/h (0 Bft) NO 315 0 min 0 W/m 4,5 C 6,7 C 3,6 km/h (1 Bft)
23/01/2012 21:40 6,7 C 86 % 1022,5 hPa 0,0 mm 0,0 km/h (0 Bft) O-NO 292 0 min 0 W/m 4,5 C 6,7 C 0,0 km/h (0 Bft)
23/01/2012 21:50 6,8 C 86 % 1022,3 hPa 0,0 mm 0,0 km/h (0 Bft) O 270 0 min 0 W/m 4,6 C 6,8 C 0,0 km/h (0 Bft)
23/01/2012 22:00 6,7 C 86 % 1022,3 hPa 0,0 mm 1,4 km/h (1 Bft) S-SO 202 0 min 0 W/m 4,5 C 6,7 C 4,3 km/h (1 Bft)
23/01/2012 22:10 6,6 C 86 % 1022,4 hPa 0,0 mm 0,0 km/h (0 Bft) S-SO 202 0 min 0 W/m 4,4 C 6,6 C 0,0 km/h (0 Bft)
23/01/2012 22:20 6,5 C 86 % 1022,5 hPa 0,0 mm 0,0 km/h (0 Bft) O-SO 247 0 min 0 W/m 4,3 C 6,5 C 0,0 km/h (0 Bft)
23/01/2012 22:30 6,4 C 86 % 1022,6 hPa 0,0 mm 0,0 km/h (0 Bft) O-SO 247 0 min 0 W/m 4,2 C 6,4 C 0,0 km/h (0 Bft)
23/01/2012 22:40 6,3 C 86 % 1022,6 hPa 0,0 mm 0,0 km/h (0 Bft) S-SO 202 0 min 0 W/m 4,1 C 6,3 C 0,0 km/h (0 Bft)
23/01/2012 22:50 6,2 C 86 % 1022,7 hPa 0,0 mm 0,0 km/h (0 Bft) SO 225 0 min 0 W/m 4,0 C 6,2 C 0,0 km/h (0 Bft)
23/01/2012 23:00 6,0 C 87 % 1022,6 hPa 0,0 mm 0,0 km/h (0 Bft) SO 225 0 min 0 W/m 4,0 C 6,0 C 0,0 km/h (0 Bft)
23/01/2012 23:10 5,8 C 87 % 1022,8 hPa 0,0 mm 0,0 km/h (0 Bft) O 270 0 min 0 W/m 3,8 C 5,8 C 0,0 km/h (0 Bft)
23/01/2012 23:20 5,5 C 88 % 1022,8 hPa 0,0 mm 0,0 km/h (0 Bft) O 270 0 min 0 W/m 3,7 C 5,5 C 0,0 km/h (0 Bft)
23/01/2012 23:30 5,4 C 88 % 1022,9 hPa 0,0 mm 0,0 km/h (0 Bft) SO 225 0 min 0 W/m 3,6 C 5,4 C 0,0 km/h (0 Bft)
23/01/2012 23:40 5,3 C 88 % 1023,1 hPa 0,0 mm 0,0 km/h (0 Bft) O 270 0 min 0 W/m 3,5 C 5,3 C 0,0 km/h (0 Bft)
_ Min-Heure 23:40 17:10 16:20 - 23:40 - - - - 23:40 23:40 23:40
Minimum _ 5,3 C 82 % 1020,2 hPa - 0,0 km/h (0 Bft) - - - - 3,5 C 5,3 C 0,0 km/h (0 Bft)
_ Max-Heure 15:10 10:30 23:40 23:40 13:30 - - 17:30 23:40 14:10 15:10 16:50
Maximum _ 9,1 C 95 % 1023,1 hPa 0,0 mm 5,0 km/h
O (1 Bft)
- - 2 min 0 W/m 6,9 C 9,1 C 8,3 km/h
NO (2 Bft)
Moyenne _ 7,2 C 90 % 1021,3 hPa #0,0 mm 0,6 km/h (0 Bft) O - #1:46 h 0 W/m 5,7 C 7,2 C 1,8 km/h (1 Bft)
Saint Bonnet de Bellac- Haute Vienne - France